Regional Weather Roundup
Issued by NWS

Home | Current Version | Previous Version | Graphics & Text | Print | Product List | Glossary On
Versions: 1 2 3 4 5 6 7 8 9 10 11 12 13 14 15 16 17 18 19 20 21 22 23 24 25 26 27 28 29 30 31 32 33 34 35 36 37 38 39 40 41 42 43 44 45 46 47 48 49 50
000
ASUS45 KABQ 270901
RWRNM
NEW MEXICO REGIONAL WEATHER ROUNDUP
NATIONAL WEATHER SERVICE ALBUQUERQUE NM
300 AM MDT MON MAR 27 2017

NOTE: "FAIR" MEANS FEW OR NO CLOUDS BELOW 12,000 FEET AGL WITH NO
       SIGNIFICANT WEATHER OR OBSTRUCTIONS TO VISION.

      THIS PRODUCT IS RELEASED AS TWO VERSIONS.  ONE VERSION NEAR
      THE TOP OF THE HOUR CONTAINING PRELIMINARY DATA FROM ALBUQUERQUE
      AND OTHER STATIONS.  A FINAL VERSION WITH ADDITIONAL DATA IS
      ISSUED ABOUT 10 MINUTES AFTER THE HOUR.

NMZ501-503-504-510>518-271000-
NORTHWEST PLATEAU/NORTHCENTRAL MOUNTAINS

CITY           SKY/WX    TMP DP  RH WIND       PRES   REMARKS
FARMINGTON     FAIR      37  29  72 E7        29.98F WCI  32
LOS ALAMOS     FAIR      43  24  46 CALM      30.05F
SANTA FE       FAIR      31  24  75 NW3       30.01F
TAOS             N/A     30  21  69 E7        30.05S WCI  23
ANGEL FIRE     FAIR      28  25  88 CALM      30.07S

$$
NMZ402-403-502-505>509-271000-
WESTCENTRAL MOUNTAINS/SOUTHWEST MOUNTAINS

CITY           SKY/WX    TMP DP  RH WIND       PRES   REMARKS
GALLUP         FAIR      31  24  75 E5        30.05F WCI  26
GRANTS         FAIR      31  21  65 E3        30.08F
SILVER CITY    FAIR      42  23  47 NW9       30.03F

$$
NMZ407-409-411-412-271000-
SOUTHERN DESERTS

CITY           SKY/WX    TMP DP  RH WIND       PRES   REMARKS
DEMING         FAIR      48  21  34 W8        30.00F
LAS CRUCES     FAIR      49  17  28 SW9       30.00F
HOLLOMAN AFB   FAIR      47  17  31 E3        30.00S
ALAMOGORDO     FAIR      46  16  29 CALM      29.98S
T OR C         FAIR      52  18  26 NW10      29.99S

$$
NMZ519>523-271000-
CENTRAL VALLEYS/CENTRAL HIGHLANDS

CITY           SKY/WX    TMP DP  RH WIND       PRES   REMARKS
ALBUQUERQUE    FAIR      44  23  43 CALM      30.02S
MORIARTY ARPT  FAIR      29  21  70 CALM      30.05S
CLINES CORNERS FAIR      42  22  44 W5        30.05R
BELEN          FAIR      42  19  38 CALM      30.02S
SOCORRO        FAIR      46  16  30 W3        30.00F

$$
NMZ524>526-539-540-271000-
SOUTHCENTRAL MOUNTAINS

CITY           SKY/WX    TMP DP  RH WIND       PRES   REMARKS
RUIDOSO        NOT AVBL

$$
NMZ527>531-271000-
NORTHEAST HIGHLANDS/NORTHEAST PLAINS

CITY           SKY/WX    TMP DP  RH WIND       PRES   REMARKS
LAS VEGAS      FAIR      33  26  75 SW7       30.03S WCI  27
RATON          FAIR      32  29  88 NE3       30.00S
CLAYTON        FAIR      35  33  92 NW10      29.97S WCI  27

$$
NMZ532>537-271000-
EASTCENTRAL PLAINS

CITY           SKY/WX    TMP DP  RH WIND       PRES   REMARKS
TUCUMCARI      FAIR      40  34  79 SW3       29.97F
CANNON AFB     FAIR      38  38 100 CALM      29.98S
CLOVIS AIRPORT FAIR      37  30  75 N3        29.98R

$$
NMZ028-029-538-271000-
SOUTHEAST PLAINS

CITY           SKY/WX    TMP DP  RH WIND       PRES   REMARKS
ROSWELL        FAIR      49  27  42 N8          N/A
ARTESIA        FAIR      50  18  27 NW9       29.94R
CARLSBAD       FAIR      51  17  26 N7        29.91S
HOBBS          FAIR      46  32  57 N10       29.97S


$$




USA.gov is the U.S. government's official web portal to all federal, state and local government web resources and services.